sat.trackr.live / text

‹ back to catalog

STARLINK-5018

NORAD 53929 · 2022-119AV

PAYLOAD ACTIVE UNKNOWN

§ Identity

Operator
Country
US
Launch date
2022-09-24
Launch site
AFETR
Launch vehicle
Mass (kg)
RCS (m²)

Purposes: comms

External: N2YO · Heavens-Above · Gunter

§ Orbital elements

Epoch: 2026-09-20T23:00:32.410080Z

Period
94.01 min
Inclination
53.1596°
Eccentricity
0.0001367
Mean motion
15.31705719 rev/d
Perigee alt
469.8 km
Apogee alt
471.7 km
Semi-major
6,848.9 km
B*
4.9680e-5
RAAN
145.6525°
Arg perigee
87.0096°
Mean anomaly
273.1062°
Rev number
22,146

§ Raw data

STARLINK-50181 53929U 22119AV  26263.95870845  .00001177  00000+0  49680-4 0  99942 53929  53.1596 145.6525 0001367  87.0096 273.1062 15.31705719221469

JSON: /api/v1/satellites/53929 · /tle

For live sub-satellite position, see the globe view (requires WebGL).

§ Visibility from observer

Set your observer location to see the next 7 days of passes ≥ 10°. The values pass through the URL so the page stays shareable.

No JS? Fill the form by hand. The geolocation button needs JavaScript.